STARLINK-5146, 54073

Orbit data source: Space-Track

STARLINK-5146, 54073 is a payload satellite owned by SpaceX/Seattle (US) in LEO that was launched on Thu, 20 Oct 2022 UTC via an FALCON 9 launch vehicle from the Air Force Eastern Test Range (AFETR). Payload-class satellites include a variety of spacecraft equipped with specific instruments for various scientific and technological missions. These include communications satellites like Starlink; space stations such as the ISS; scientific satellites like the Hubble; Earth observation satellites from companies like Planet Labs, Umbra, and HawkEye 360; GPS; miniature CubeSats for education and research; and military/defense satellites.

Loading next visibility...
Identifier
54073, 2022-136Y
Orbit
LEO
Country
Flag of USUS
Related business
Manufacturer
SpaceX/Seattle
Mission
Operational Commercial Communications
Bus & Motor
STARLINK, Unknown motor
Mass
305 kg wet, ~290 kg dry
Launch date (UTC)
2022-10-20 (4 years ago)
Launch vehicle
FALCON 9
Launch site
Air Force Eastern Test Range (AFETR)
Object type
Payload
Rocket body
Debris
Shape & HBR
Box + 1 Pan, 10.1 m
Radar Cross Section
13.562 m², Large (>1 m²)

Expand to show TLE details & history
Last TLE update: 2 days ago

TLE from 2 days ago
0 STARLINK-5146
1 54073U 22136Y   26171.45851159  .00000479  00000-0  48164-4 0  9995
2 54073  53.1596 237.3166 0001171  89.9084 270.2041 15.08836065202435
Epoch: 2026-06-20T11:00Z
TLE epoch observation values (Epoch: 2026-06-20T11:00:15.401Z)
Latitude
-0.00006°
Longitude
163.57954°
Altitude
540.644 km
Speed
7.593 km/s
True Right ascension
15h 49m 15s
True Declination
0° 00' 00"
Sunlit
Object was in full shadow at epoch
Visualization orbit readout
Latitude
Unknown
Longitude
Unknown
Altitude
Unknown
Speed
Unknown
Apparent Right ascension
Unknown
Apparent Declination
Unknown
Sunlit
N/A
Visualization observer readout
Local Sidereal Time
21:36:01
Azimuth
Unknown
Elevation
Unknown
Doppler factor
Unknown
Orbital elements
Apogee altitude
540.82 km
Perigee altitude
539.199 km
Semi-major axis
6,918.147 km
Eccentricity
0.00012
Inclination
53.1596°
RAAN
237.3166°
Arg. of periapsis
89.9084°
True anomaly
270.19068°
Mean anomaly
270.2041°
Eccentric anomaly
270.19739°
Mean motion
3.77189 °/min
Orbital period
95.44 mins
BSTAR
0.000048164
Loading maneuver chart data...
Computing Atmospheric mass density...
Loading historical data...
Loading historical data...
Loading historical data...
Loading historical data...
Loading historical data...
Loading historical data...
Loading historical data...

Documentation

Showing up to 5 results
|